[[{"header":{"parameterUnit":"m.s-1","parameterCategory":1,"la1":30.2991,"la2":30.254,"lo1":-89.0895,"lo2":-89.0444,"dy":0.0017,"dx":0.0017,"nx":28,"ny":28,"refTime":"2025-02-06T09:00:00:Z","depth":0,"parameterNumber":2,"parameterNumberName":"U-component_of_WINDS"},"data":[0,0,0,0,0,0,0,0,0,0,0,0,0,0,0,0,0,0,0,0,0,0,0,0,0,0,0,0,0,0,0,0,0,0,0,0,0,0,0,0,0,0,0,0,0,0,0,0,0,0,0,0,0,0,0,0,0,0,-2.3145,-2.3144,0,-2.3091,-2.309,-2.3089,-2.3012,-2.3011,-2.3009,-2.3008,-2.2954,-2.2954,-2.2953,0,0,0,0,0,0,0,0,0,0,0,0,0,-2.3182,-2.3182,-2.3145,-2.3144,-2.3144,-2.3091,-2.309,-2.3089,-2.3012,-2.3011,-2.3009,-2.3008,-2.2954,-2.2954,-2.2953,0,0,0,0,0,0,0,0,0,0,0,0,0,-2.3151,-2.3182,-2.3145,-2.3099,-2.3094,-2.3091,-2.309,-2.3089,-2.3013,-2.3011,-2.3009,-2.3007,-2.2954,-2.2954,-2.2953,-2.2992,0,0,-2.2952,-2.2952,0,0,0,0,0,0,0,0,-2.3153,-2.315,-2.3106,-2.3102,-2.3097,-2.3056,-2.3083,-2.3056,-2.3013,-2.3044,-2.3008,-2.3006,-2.299,-2.2986,-2.298,-2.2989,-2.2987,-2.2952,-2.2952,-2.2952,-2.2952,0,0,0,0,0,0,0,-2.3155,-2.3151,-2.3123,-2.3106,-2.31,-2.3081,-2.3074,-2.3078,-2.3029,-2.3041,-2.3035,-2.303,-2.2987,-2.2981,-2.2979,-2.2986,-2.2952,-2.2952,-2.2952,-2.2952,-2.3021,-2.3023,0,0,0,0,0,0,-2.3164,-2.3154,-2.3125,-2.3122,-2.312,-2.3082,-2.3074,-2.3071,-2.3028,-2.302,-2.3031,-2.3026,-2.2982,-2.2979,-2.2976,-2.3017,-2.2952,-2.2952,-2.2952,-2.3019,-2.3022,-2.3024,0,0,0,0,0,0,-2.3165,-2.3162,-2.3127,-2.3136,-2.313,-2.3083,-2.308,-2.3071,-2.3065,-2.3021,-2.3012,-2.3035,-2.2981,-2.2977,-2.2988,-2.3014,-2.2952,-2.2951,-2.3017,-2.302,-2.3023,-2.3099,0,0,0,0,0,0,-2.3166,-2.3163,-2.3177,-2.3137,-2.313,-2.314,-2.3082,-2.3072,-2.3065,-2.3058,-2.3022,-2.3014,-2.2979,-2.2989,-2.2988,-2.3012,-2.2951,-2.3014,-2.3018,-2.3022,-2.3093,-2.3104,-2.3113,0,0,0,0,0,-2.3168,-2.3201,-2.3178,-2.3175,-2.3146,-2.3141,-2.3137,-2.3096,-2.3067,-2.3081,-2.3052,-2.3015,-2.3012,-2.2991,-2.2989,-2.3013,-2.3013,-2.3017,-2.3022,-2.3089,-2.3102,-2.3112,0,0,0,0,0,0,-2.3245,-2.3195,-2.3169,-2.319,-2.317,-2.3128,-2.3144,-2.3111,-2.31,-2.3093,-2.3043,-2.3036,-2.3053,-2.3034,-2.3012,-2.3047,-2.3006,-2.3011,-2.3058,-2.307,-2.3079,-2.3083,-2.2951,0,0,0,0,0,-2.3265,-2.3265,-2.3221,-2.3243,-2.3235,-2.3192,-2.3188,-2.3158,-2.3136,-2.3127,-2.3099,-2.308,-2.3074,-2.3071,-2.3064,-2.3091,-2.3081,-2.3107,-2.3117,-2.3125,-2.3129,-2.314,-2.3151,-2.3039,-2.3039,-2.3039,0,0,-2.3305,-2.3277,-2.328,-2.3258,-2.324,-2.324,-2.3185,-2.3189,-2.3188,-2.3128,-2.3136,-2.3115,-2.309,-2.3109,-2.3116,-2.3094,-2.3158,-2.3131,-2.3138,-2.3137,-2.3146,-2.3157,-2.3166,-2.3042,-2.3042,-2.3041,0,0,-2.3378,-2.3358,-2.3373,-2.3356,-2.3328,-2.3299,-2.3303,-2.3266,-2.325,-2.3257,-2.3211,-2.3211,-2.3202,-2.3186,-2.3176,-2.3243,-2.3208,-2.3242,-2.3291,-2.3303,-2.3312,-2.3319,-2.3341,-2.335,-2.3247,-2.3247,-2.3247,0,-2.3431,-2.343,-2.3386,-2.3392,-2.3383,-2.3328,-2.3343,-2.3329,-2.3301,-2.3296,-2.3272,-2.3259,-2.3239,-2.3252,-2.3268,-2.3263,-2.3265,-2.3245,-2.3314,-2.3321,-2.3328,-2.3348,-2.3357,-2.3251,-2.3251,-2.325,-2.325,0,-2.3496,-2.3496,-2.3512,-2.3485,-2.3479,-2.349,-2.3447,-2.3446,-2.3417,-2.339,-2.3398,-2.3371,-2.3356,-2.3358,-2.333,-2.3367,-2.3354,-2.3324,-2.3281,-2.3343,-2.3361,-2.3369,-2.3257,-2.3256,-2.3254,-2.3253,0,0,-2.3615,-2.3563,-2.357,-2.3556,-2.3522,-2.3521,-2.353,-2.3515,-2.3514,-2.3497,-2.3502,-2.3496,-2.3467,-2.3456,-2.3426,-2.3437,-2.3489,-2.3404,-2.3402,-2.3419,-2.3526,-2.3548,-2.3558,-2.3466,-2.3468,-2.3469,-2.3528,0,-2.368,-2.369,-2.365,-2.3671,-2.367,-2.3618,-2.3625,-2.3605,-2.358,-2.3576,-2.3549,-2.3545,-2.3508,-2.3501,-2.3509,-2.3481,-2.3509,-2.3476,-2.3469,-2.3469,-2.3475,-2.3568,-2.3591,-2.3648,-2.3535,-2.3536,-2.3537,0,-2.3756,-2.3742,-2.3762,-2.3726,-2.3724,-2.3731,-2.3713,-2.371,-2.3686,-2.3668,-2.3656,-2.3621,-2.3626,-2.3587,-2.3593,-2.3571,-2.3566,-2.3552,-2.3553,-2.3549,-2.3505,-2.3565,-2.3666,-2.3674,-2.3548,-2.3547,-2.3546,0,-2.3838,-2.3825,-2.3834,-2.3825,-2.3783,-2.3789,-2.3772,-2.3746,-2.3739,-2.3725,-2.372,-2.3706,-2.3699,-2.3689,-2.3651,-2.3626,-2.3661,-2.3619,-2.3644,-2.3645,-2.3652,-2.3652,-2.3752,-2.3653,-2.3653,-2.3653,-2.3653,0,-2.3913,-2.3927,-2.387,-2.3876,-2.389,-2.3845,-2.386,-2.3838,-2.3816,-2.3816,-2.3771,-2.3773,-2.3723,-2.3719,-2.369,-2.3698,-2.3696,-2.368,-2.3672,-2.3683,-2.3685,-2.3677,-2.3672,-2.3655,-2.3655,-2.3654,-2.3654,0,-2.4006,-2.3969,-2.3976,-2.3936,-2.3926,-2.3938,-2.3904,-2.3908,-2.3881,-2.3882,-2.388,-2.3837,-2.383,-2.3792,-2.3776,-2.3756,-2.3774,-2.3759,-2.3782,-2.3776,-2.3803,-2.38,-2.39,-2.391,-2.3807,-2.3808,-2.3809,0,-2.4056,-2.4065,-2.4026,-2.4023,-2.4008,-2.4004,-2.3996,-2.3953,-2.3947,-2.392,-2.3927,-2.3916,-2.3904,-2.3895,-2.3863,-2.3851,-2.3833,-2.3869,-2.3831,-2.3842,-2.3831,-2.383,-2.383,-2.3877,-2.3878,-2.3879,-2.388,0,-2.4147,-2.4127,-2.4118,-2.4103,-2.4096,-2.4081,-2.4065,-2.4065,-2.4016,-2.4012,-2.4004,-2.3995,-2.3979,-2.3968,-2.395,-2.3932,-2.3898,-2.3893,-2.3898,-2.3908,-2.392,-2.3912,-2.3802,-2.389,-2.3889,-2.3889,-2.3888,-2.3888,-2.4218,-2.4223,-2.4196,-2.4187,-2.417,-2.4155,-2.4156,-2.4129,-2.4121,-2.4104,-2.4079,-2.4074,-2.4049,-2.4021,-2.4006,-2.4001,-2.3982,-2.3989,-2.3991,-2.3993,-2.3998,-2.3923,-2.3998,-2.3998,-2.3997,-2.3997,-2.3997,0,-2.4304,-2.4284,-2.4277,-2.4254,-2.4247,-2.4216,-2.4196,-2.4192,-2.4188,-2.4167,-2.4157,-2.4147,-2.4137,-2.4104,-2.409,-2.4092,-2.4076,-2.4089,-2.4088,-2.4084,-2.4017,-2.4013,-2.4103,-2.4103,-2.4103,-2.4103,-2.4103,-2.4103,-2.4348,-2.4355,-2.4333,-2.433,-2.431,-2.4304,-2.4295,-2.4281,-2.4264,-2.4255,-2.4246,-2.4224,-2.4199,-2.4182,-2.4171,-2.4161,-2.4157,-2.4176,-2.4161,-2.4099,-2.4089,-2.4079,-2.4075,-2.4176,-2.4176,-2.4228,-2.4228,-2.4229]},{"header":{"parameterUnit":"m.s-1","parameterCategory":1,"la1":30.2991,"la2":30.254,"lo1":-89.0895,"lo2":-89.0444,"dy":0.0017,"dx":0.0017,"nx":28,"ny":28,"refTime":"2025-02-06T09:00:00:Z","depth":0,"parameterNumber":3,"parameterNumberName":"V-component_of_WINDS"},"data":[0,0,0,0,0,0,0,0,0,0,0,0,0,0,0,0,0,0,0,0,0,0,0,0,0,0,0,0,0,0,0,0,0,0,0,0,0,0,0,0,0,0,0,0,0,0,0,0,0,0,0,0,0,0,0,0,0,0,2.3048,2.3049,0,2.3102,2.3102,2.3103,2.3114,2.3114,2.3114,2.3113,2.3169,2.3171,2.3173,0,0,0,0,0,0,0,0,0,0,0,0,0,2.296,2.2961,2.3048,2.3049,2.3049,2.3101,2.3102,2.3103,2.3114,2.3114,2.3114,2.3113,2.3168,2.3171,2.3173,0,0,0,0,0,0,0,0,0,0,0,0,0,2.3004,2.2962,2.3048,2.3061,2.3063,2.3101,2.3102,2.3103,2.3115,2.3114,2.3113,2.3113,2.3168,2.317,2.3173,2.3202,0,0,2.3182,2.3183,0,0,0,0,0,0,0,0,2.3002,2.3007,2.3059,2.3061,2.3063,2.3101,2.3091,2.3136,2.3115,2.3095,2.3113,2.3113,2.3147,2.3151,2.3163,2.3204,2.3207,2.3182,2.3183,2.3185,2.3185,0,0,0,0,0,0,0,2.2999,2.3005,2.3069,2.306,2.3062,2.3066,2.3072,2.31,2.3124,2.3097,2.3098,2.3104,2.3148,2.316,2.3164,2.3208,2.3182,2.3184,2.3186,2.3187,2.328,2.3281,0,0,0,0,0,0,2.2993,2.3003,2.3068,2.3071,2.303,2.3068,2.3074,2.3089,2.3123,2.3128,2.3104,2.3104,2.3155,2.3161,2.3166,2.3205,2.3185,2.3187,2.3189,2.3279,2.328,2.3281,0,0,0,0,0,0,2.2991,2.2998,2.3065,2.3037,2.3046,2.307,2.3087,2.309,2.3103,2.3129,2.3133,2.3112,2.3155,2.3162,2.3194,2.3206,2.3188,2.3191,2.3278,2.3279,2.3281,2.328,0,0,0,0,0,0,2.2988,2.2998,2.3008,2.3037,2.3047,2.3091,2.3087,2.3092,2.3107,2.3108,2.3138,2.3142,2.3155,2.3189,2.3196,2.321,2.3193,2.3277,2.3279,2.328,2.3279,2.3281,2.3283,0,0,0,0,0,2.2985,2.3005,2.3008,2.3016,2.306,2.3092,2.3098,2.3112,2.3108,2.3119,2.3137,2.3141,2.3204,2.3193,2.32,2.3215,2.3276,2.3278,2.328,2.3278,2.3281,2.3283,0,0,0,0,0,0,2.2976,2.3009,2.3013,2.3042,2.3064,2.3094,2.3108,2.3114,2.3137,2.3137,2.3154,2.3161,2.3192,2.3207,2.3194,2.3247,2.324,2.3244,2.3236,2.3239,2.324,2.3237,2.3195,0,0,0,0,0,2.2977,2.2999,2.3027,2.3051,2.3061,2.3083,2.3097,2.3107,2.313,2.3139,2.3159,2.3182,2.3208,2.3224,2.3248,2.3281,2.329,2.3295,2.3297,2.3299,2.3302,2.3324,2.3328,2.3287,2.3287,2.3287,0,0,2.298,2.3001,2.3014,2.3049,2.3067,2.3091,2.309,2.3115,2.3133,2.3143,2.3175,2.319,2.3218,2.3251,2.3266,2.3264,2.3315,2.3301,2.3302,2.3304,2.3326,2.333,2.3333,2.3288,2.3288,2.3288,0,0,2.2998,2.3015,2.3038,2.3057,2.3085,2.3099,2.3105,2.3134,2.3145,2.3177,2.3186,2.3209,2.3251,2.3271,2.3287,2.3317,2.3323,2.3324,2.3334,2.3356,2.3359,2.3362,2.3375,2.3379,2.3327,2.3327,2.3327,0,2.2998,2.3034,2.3049,2.3074,2.3091,2.3102,2.3127,2.3144,2.3179,2.3191,2.3187,2.3243,2.3262,2.3302,2.331,2.3321,2.333,2.3321,2.3357,2.336,2.3363,2.3376,2.3381,2.3327,2.3327,2.3327,2.3327,0,2.3034,2.3059,2.3074,2.3108,2.3127,2.3151,2.3172,2.319,2.3199,2.3214,2.3249,2.3272,2.3303,2.3313,2.3322,2.3356,2.3354,2.3353,2.3347,2.3367,2.338,2.3384,2.3328,2.3328,2.3328,2.3327,0,0,2.3045,2.309,2.3096,2.3113,2.3146,2.3166,2.3193,2.3223,2.3239,2.3263,2.3288,2.3325,2.3326,2.3344,2.3355,2.3374,2.34,2.3372,2.3373,2.3378,2.3442,2.3443,2.3448,2.3404,2.3404,2.3405,2.344,0,2.3069,2.3116,2.3132,2.3172,2.3197,2.321,2.3233,2.3257,2.3274,2.3298,2.3316,2.3344,2.3342,2.3353,2.3372,2.3392,2.3413,2.339,2.3428,2.3429,2.3422,2.3454,2.3454,2.3486,2.3445,2.3446,2.3446,0,2.3101,2.3127,2.317,2.3203,2.3214,2.3235,2.3267,2.3289,2.3318,2.3329,2.3351,2.3362,2.3392,2.3385,2.3429,2.3413,2.343,2.3443,2.3444,2.3449,2.344,2.3462,2.3496,2.3502,2.3454,2.3453,2.3453,0,2.3108,2.3154,2.3186,2.32,2.3239,2.3254,2.3271,2.3299,2.3318,2.3346,2.3359,2.339,2.3407,2.3432,2.3452,2.3444,2.3495,2.3488,2.3507,2.3507,2.3517,2.3517,2.3557,2.3526,2.3526,2.3526,2.3526,0,2.3133,2.3158,2.319,2.321,2.324,2.326,2.3291,2.3309,2.3334,2.336,2.3372,2.3396,2.342,2.3447,2.3463,2.3499,2.3506,2.3518,2.3522,2.3517,2.3516,2.3529,2.3528,2.3527,2.3527,2.3526,2.3526,0,2.3145,2.3166,2.3203,2.3238,2.3248,2.3269,2.33,2.3321,2.3339,2.3371,2.338,2.3408,2.3442,2.3464,2.3506,2.3517,2.3557,2.356,2.3547,2.355,2.3568,2.3567,2.3619,2.3629,2.359,2.359,2.359,0,2.3159,2.318,2.3218,2.3236,2.3254,2.3282,2.3302,2.3324,2.3344,2.3381,2.3398,2.3433,2.3461,2.3515,2.354,2.3573,2.3578,2.3595,2.3583,2.3579,2.3581,2.358,2.3584,2.3596,2.3597,2.3597,2.3597,0,2.3183,2.3194,2.3222,2.3255,2.3279,2.3306,2.3333,2.3347,2.3374,2.3397,2.3432,2.3454,2.3499,2.3534,2.3571,2.359,2.3599,2.3601,2.3607,2.3603,2.3596,2.3603,2.3554,2.3599,2.3599,2.3599,2.3599,2.3599,2.3198,2.3219,2.325,2.3282,2.3305,2.3331,2.3354,2.3376,2.3405,2.3444,2.3455,2.3492,2.3524,2.3575,2.3595,2.3626,2.3624,2.3633,2.3635,2.3637,2.3639,2.3591,2.3632,2.3632,2.3632,2.3632,2.3632,0,2.3225,2.3247,2.3276,2.3315,2.3341,2.3347,2.3379,2.3401,2.3433,2.3462,2.3491,2.3533,2.3569,2.3598,2.3635,2.3654,2.3659,2.3663,2.3662,2.3668,2.3637,2.3629,2.3658,2.3658,2.3658,2.3658,2.3658,2.3658,2.3242,2.3278,2.3293,2.3342,2.3364,2.3401,2.3419,2.3444,2.3468,2.3514,2.3544,2.3563,2.3593,2.3633,2.3667,2.3675,2.3689,2.3692,2.3701,2.3672,2.3669,2.3666,2.3659,2.3694,2.3695,2.373,2.373,2.373]}]]